STARLINK-3621, 51769

Orbit data source: Space-Track

STARLINK-3621, 51769 is a payload satellite owned by SpaceX/Seattle (US) in LEO that was launched on Fri, 25 Feb 2022 UTC via an FALCON 9 launch vehicle from the Air Force Western Test Range (AFWTR). Payload-class satellites include a variety of spacecraft equipped with specific instruments for various scientific and technological missions. These include communications satellites like Starlink; space stations such as the ISS; scientific satellites like the Hubble; Earth observation satellites from companies like Planet Labs, Umbra, and HawkEye 360; GPS; miniature CubeSats for education and research; and military/defense satellites.

Loading next visibility...
Identifier
51769, 2022-017B
Orbit
LEO
Country
Flag of USUS
Related business
Manufacturer
SpaceX/Seattle
Mission
Operational Commercial Communications
Bus & Motor
STARLINK, Unknown motor
Mass
297 kg wet, ~275 kg dry
Launch date (UTC)
2022-02-25 (4 years ago)
Launch vehicle
FALCON 9
Launch site
Air Force Western Test Range (AFWTR)
Object type
Payload
Rocket body
Debris
Shape & HBR
Box + 1 Pan, 10.1 m
Radar Cross Section
13.562 m², Large (>1 m²)

Expand to show TLE details & history
Last TLE update: 2 days ago

TLE from 2 days ago
0 STARLINK-3621
1 51769U 22017B   26171.46165047  .00006698  00000-0  42649-3 0  9997
2 51769  53.2156 237.5212 0001101  49.7806 310.3283 15.09869017238123
Epoch: 2026-06-20T11:04Z
TLE epoch observation values (Epoch: 2026-06-20T11:04:46.600Z)
Latitude
-0.00001°
Longitude
162.65109°
Altitude
537.005 km
Speed
7.595 km/s
True Right ascension
15h 50m 05s
True Declination
0° 00' 00"
Sunlit
Object was in full shadow at epoch
Visualization orbit readout
Latitude
Unknown
Longitude
Unknown
Altitude
Unknown
Speed
Unknown
Apparent Right ascension
Unknown
Apparent Declination
Unknown
Sunlit
N/A
Visualization observer readout
Local Sidereal Time
21:31:01
Azimuth
Unknown
Elevation
Unknown
Doppler factor
Unknown
Orbital elements
Apogee altitude
537.607 km
Perigee altitude
536.084 km
Semi-major axis
6,914.982 km
Eccentricity
0.00011
Inclination
53.2156°
RAAN
237.5212°
Arg. of periapsis
49.7806°
True anomaly
310.31868°
Mean anomaly
310.3283°
Eccentric anomaly
310.32349°
Mean motion
3.77448 °/min
Orbital period
95.38 mins
BSTAR
0.00042649
Loading maneuver chart data...
Computing Atmospheric mass density...
Loading historical data...
Loading historical data...
Loading historical data...
Loading historical data...
Loading historical data...
Loading historical data...
Loading historical data...

Documentation

Showing up to 5 results
|